Christmas Island, Christmas Island

4:18 PM CXT on February 21, 2017 (GMT +0700)
Christmas Island

Weather History for YPXM - March, 2014

Change the Weather History Date:

Monday, March 31, 2014

  Actual Average Record
Temperature  
Mean Temperature 82 °F -  
Max Temperature 84 °F 80 °F 84 °F (2014)
Min Temperature 80 °F 73 °F 68 °F (2008)
Cooling Degree Days 17    
Growing Degree Days 32 (Base 50)    
Moisture  
Dew Point 75 °F    
Average Humidity 76    
Maximum Humidity 84    
Minimum Humidity 63    
Precipitation  
Precipitation 0.00 in - - ()
Sea Level Pressure  
Sea Level Pressure 29.86 in    
Wind  
Wind Speed 8 mph ()    
Max Wind Speed 13 mph    
Max Gust Speed -    
Averages and records for this station are not official NWS values.
T = Trace of Precipitation, MM = Missing Value Source: Averaged Metar Reports

Daily Weather History Graph

Daily Weather History Graph

Search for Another Location

Airport or City:

Trip Planner

Search our weather history database for the weather conditions in past years. The results will help you decide how hot, cold, wet, or windy it might be!

Date:

Astronomy

Mar. 31, 2014 Rise Set
Actual Time 6:01 AM CXT 6:01 PM CXT
Civil Twilight 5:40 AM CXT 6:22 PM CXT
Nautical Twilight 5:15 AM CXT 6:47 PM CXT
Astronomical Twilight 4:51 AM CXT 7:11 PM CXT
Moon 6:13 AM CXT (3/31) 6:26 PM CXT (3/31)
Length of Visible Light 12h 42m
Length of Day
12h 00m
New Moon, 0% of the Moon is Illuminated
Mar 31
New Moon
Apr 7
First Quarter
Apr 15
Full
Apr 22
Last Quarter
Apr 29
New

Hourly Weather History & Observations

Time (CXT) Temp. Heat Index Dew Point Humidity Pressure Visibility Wind Dir Wind Speed Gust Speed Precip Events Conditions
9:51 AM 84.2 °F 92.3 °F 75.2 °F 74% 29.92 in - North - - N/A   Mostly Cloudy
10:00 AM 82 °F - 75 °F 73% 29.87 in - Calm Calm - -  
10:00 AM 82.4 °F 89.5 °F 75.2 °F 79% 29.92 in - North - - N/A   Mostly Cloudy
10:56 AM 82.4 °F 89.5 °F 75.2 °F 79% 29.89 in - North - - N/A   Mostly Cloudy
11:00 AM 84.2 °F 94.1 °F 77.0 °F 79% 29.89 in - ESE 12.7 mph - N/A   Mostly Cloudy
11:22 AM 84.2 °F 92.3 °F 75.2 °F 74% 29.89 in - North - - N/A   Scattered Clouds
12:00 PM 83 °F - 75 °F 71% 29.84 in - Calm Calm - -   Overcast
12:00 PM 82.4 °F 89.5 °F 75.2 °F 79% 29.86 in - North - - N/A   Mostly Cloudy
12:31 PM 84.2 °F 92.3 °F 75.2 °F 74% 29.86 in - North - - N/A   Scattered Clouds
1:00 PM 83 °F - 76 °F 73% 29.82 in - Calm Calm - -  
1:00 PM 82.4 °F 89.5 °F 75.2 °F 79% 29.86 in - North - - N/A   Mostly Cloudy
1:20 PM 84.2 °F 92.3 °F 75.2 °F 74% 29.86 in - North - - N/A   Scattered Clouds
2:00 PM 84.2 °F 92.3 °F 75.2 °F 74% 29.83 in - North - - N/A   Mostly Cloudy
3:00 PM 82 °F - 75 °F 74% 29.78 in - Calm Calm - -  
3:00 PM 82.4 °F 89.5 °F 75.2 °F 79% 29.83 in - North - - N/A   Mostly Cloudy
3:31 PM 82.4 °F 89.5 °F 75.2 °F 79% 29.83 in - North - - N/A   Mostly Cloudy
4:00 PM 83 °F - 72 °F 63% 29.78 in - Calm Calm - -  
4:00 PM 82.4 °F 88.2 °F 73.4 °F 74% 29.83 in - North - - N/A   Mostly Cloudy
5:00 PM 82.4 °F 87.2 °F 71.6 °F 70% 29.83 in - North - - N/A   Scattered Clouds
6:00 PM 81 °F - 73 °F 70% 29.81 in - Calm Calm - -  
6:00 PM 80.6 °F 85.4 °F 73.4 °F 79% 29.86 in - North - - N/A   Scattered Clouds
7:00 PM 81 °F - 74 °F 75% 29.82 in - East 9.2 mph - -  
7:00 PM 80.6 °F 86.2 °F 75.2 °F 84% 29.86 in - East 9.2 mph - N/A   Mostly Cloudy
8:00 PM 80.6 °F 86.2 °F 75.2 °F 84% 29.89 in - East 9.2 mph - N/A   Scattered Clouds
9:00 PM 80 °F - 74 °F 76% 29.85 in - ESE 9.2 mph - -  
9:00 PM 80.6 °F 85.4 °F 73.4 °F 79% 29.89 in - ESE 9.2 mph - N/A   Unknown
10:00 PM 80 °F - 75 °F 80% 29.86 in - East 9.2 mph - -  
10:00 PM 80.6 °F 86.2 °F 75.2 °F 84% 29.89 in - East 9.2 mph - N/A   Mostly Cloudy
11:00 PM 80.6 °F 86.2 °F 75.2 °F 84% 29.89 in - East 10.4 mph - N/A   Scattered Clouds